Regional Weather Roundup
Issued by NWS

Home | Current Version | Previous Version | Text Only | Print | Product List | Glossary Off
Versions: 1 2 3 4 5 6 7 8 9 10 11 12 13 14 15 16 17 18 19 20 21 22 23 24 25 26 27 28 29 30 31 32 33 34 35 36 37 38 39 40 41 42 43 44 45 46 47 48 49 50

747
ASUS45 KTFX 232110
RWRMT
MONTANA REGIONAL WEATHER ROUNDUP
NATIONAL WEATHER SERVICE GREAT FALLS MT
300 PM MDT THU MAR 23 2017

NOTE: "FAIR" INDICATES FEW OR NO CLOUDS BELOW 12000 FEET WITH NO
SIGNIFICANT WEATHER AND/OR OBSTRUCTIONS TO VISIBILITY.

MTZ001>007-043-232200-
WEST OF THE DIVIDE

CITY           SKY/WX    TMP DP  RH WIND       PRES   REMARKS
KALISPELL      CLOUDY    49  27  42 W10G18    29.97F
MISSOULA         N/A     49  24  37 N16G23    29.97F
BUTTE          MOSUNNY   47  21  35 NW10      29.90S
MULLAN PASS    CLOUDY    28  24  85 VRB3      29.98S
ANACONDA         N/A     46  21  36 N10       29.91S
DEER LODGE       N/A     46  21  36 NW17G25   29.94S
EUREKA           N/A     50  21  32 S10       29.99F
HAMILTON         N/A     50  21  32 S7        29.96F
PLAINS           N/A     49  27  42 W12       30.02S
RONAN            N/A     50  26  39 W10       30.04S
$$

MTZ008-052>055-232200-
SOUTHWEST MONTANA

CITY           SKY/WX    TMP DP  RH WIND       PRES   REMARKS
BOZEMAN        CLOUDY    49  27  42 W5        29.88F
W YELLOWSTONE  CLOUDY    41  19  42 CALM      29.85S
ENNIS          MOSUNNY   48  27  43 NW9G16    29.92S
THREE FORKS      N/A     53  53 100 NW3       29.89S
TWIN BRIDGES     N/A     53  21  28 NW8       29.88F
$$

MTZ009-010-012-014-046-048-049-054-232200-
EAST SLOPES AND CENTRAL MONTANA

CITY           SKY/WX    TMP DP  RH WIND       PRES   REMARKS
CUT BANK         N/A     51  22  31 W20G30    29.83S
GREAT FALLS    SUNNY     55  15  20 W10G26    29.84F
MALMSTROM AFB  SUNNY     55  17  22 W16G22    29.85S
HELENA         SUNNY     53  21  28 W14G23    29.89S
AUGUSTA          N/A     49  19  30 NW18G25   29.86S
BOWMANS CRNR     N/A     50  19  29 W13G18    29.84S
CHOTEAU          N/A     54  19  26 W15G22    29.87R
CONRAD           N/A     55  23  29 NW13      29.87F
POWER            N/A     53  17  24 W6        29.83S
RAYNESFORD       N/A     52  22  30 W15G23    29.84F
$$

MTZ011-013-016-021-045-047-050-051-232200-
NORTH CENTRAL MONTANA

CITY           SKY/WX    TMP DP  RH WIND       PRES   REMARKS
HAVRE          PTSUNNY   58  24  27 NW13G23   29.80
LEWISTOWN      PTSUNNY   55  25  31 NW8       29.82
N BAR RANCH      N/A     54  23  30 NW16G22   29.83F
CHINOOK          N/A     57  25  28 W15       29.80S
FORT BENTON      N/A     57  19  23 MISG      29.83S
GEYSER           N/A     53  20  28 NW25      29.82F
GRASS RANGE      N/A     55  23  29 NW10      29.78F
STANFORD         N/A     53  21  28 NW29G36   29.81F
WINIFRED         N/A     55  22  28 W15G24    29.82S
$$

MTZ017>020-022>027-061-062-232200-
NORTHEAST MONTANA

CITY           SKY/WX    TMP DP  RH WIND       PRES   REMARKS
GLASGOW        SUNNY     60  30  32 NW12      29.76F
JORDAN           N/A     62  31  31 NW12G20   29.77F
SIDNEY         PTSUNNY   59  41  51 E5        29.74F
WOLF POINT     SUNNY     64  35  34 VRB3      29.73F
MALTA          SUNNY     59  30  33 W13G21    29.78S
PLENTYWOOD       N/A     55  37  50 CALM      29.76S
POPLAR           N/A     57  36  44 CALM      29.75F
SCOBEY           N/A     59  30  33 W3        29.75F
$$

MTZ028>42-056>058-232200-
SOUTHCENTRAL AND SOUTHEAST MONTANA

CITY           SKY/WX    TMP DP  RH WIND       PRES   REMARKS
BAKER          CLOUDY    52  36  54 E8        29.77F
BILLINGS       CLOUDY    54  35  48 VRB3      29.81F
LIVINGSTON     PTSUNNY   55  28  35 N10G20    29.83S
MILES CITY     PTSUNNY   56  44  64 W12       29.77S
BIG TIMBER     SUNNY     55  27  33 SW17G26   29.83F
EKALAKA          N/A     45  39  79 NE7       29.78S
FORSYTH          N/A     54  39  58 SW7       29.79S
HARLOWTON      PTSUNNY   54  24  32 N12       29.81R
LAUREL           N/A     53  33  46 E1        29.82S
$$

REGIONAL REPORTS...DAKOTAS

CITY           SKY/WX    TMP DP  RH WIND       PRES   REMARKS
WILLISTON      PTSUNNY   56  38  50 NE7       29.75S
MINOT          CLOUDY    42  34  73 N10       29.75S
DICKINSON      CLOUDY    48  38  68 NE5       29.73F
BEACH            N/A    N/A N/A N/A MISG        N/A
TIOGA            N/A     50  41  71 NE7       29.77S
WATFORD CITY     N/A     52  41  66 NE8       29.75R
BISMARCK       CLOUDY    41  37  86 N7        29.73F
GRAND FORKS    LGT RAIN  36  35  96 SE14      29.75F WCI  27
FARGO          CLOUDY    38  33  82 SE13      29.79F WCI  30
BUFFALO SD       N/A     45  41  86 N20       29.69R
RAPID CITY     MOSUNNY   54  43  66 N36G43    29.66R
$$

REGIONAL REPORTS...WYOMING/IDAHO/WASHINGTON

CITY           SKY/WX    TMP DP  RH WIND       PRES   REMARKS
GILLETTE       LGT RAIN  40 N/A N/A N22       29.76R
SHERIDAN       LGT RAIN  44  40  85 W17       29.83R
BUFFALO WY     LGT RAIN  40  35  83 NW21G28   29.82R
CODY           CLOUDY    44  34  67 NW12      29.85R
YELLOWSTONE LA   N/A     39  22  50 VRB6      29.86R
IDAHO FALLS    MOSUNNY   55  29  36 NW10G22   29.84S
SALMON         SUNNY     52  19  28 CALM      29.91S
BOISE            N/A     53  25  33 NW14G22   30.03F
SPOKANE        PTSUNNY   45  28  51 VRB6      30.05F
$$

REGIONAL REPORTS...ALBERTA

CITY           SKY/WX    TMP DP  RH WIND       PRES   REMARKS
EDMONTON       SUNNY     34  25  69 W7        29.85S WCI  28
CALGARY        PTSUNNY   48  16  27 NW14G25   29.79R
LETHBRIDGE     MOSUNNY   55  19  24 W22G30    29.80R
MEDICINE HAT   MOSUNNY   59  25  27 NW9G21    29.76R
WATERTON GATE    N/A     46  19  34 SW23G35     N/A
CARDSTON         N/A     50  19  29 W17G28      N/A
MILK RIVER       N/A     55  21  26 W17G24      N/A
ONEFOUR          N/A     55  23  28 W20G26      N/A
$$

REGIONAL REPORTS...SASKATCHEWAN

CITY           SKY/WX    TMP DP  RH WIND       PRES   REMARKS
SWIFT CURRENT  SUNNY     52  34  50 N13G18    29.74S
REGINA         MOSUNNY   48  32  53 NW8       29.77F
SASKATOON      MOSUNNY   37  25  60 NW5       29.85S
CYPRESS HILLS    N/A     50  19  29 W13G20      N/A
VAL MARIE        N/A     59  28  31 NW14        N/A
ROCKGLEN         N/A     55  30  38 NW10G17     N/A
ASSINIBOIA       N/A     27  16  63 E1          N/A
$$




USA.gov is the U.S. government's official web portal to all federal, state and local government web resources and services.